Simultaneous Nadir Overpasses (SNOs) Predictions

Prediction of SNOs between AQUA and NOAA-19 Satellite Orbit:

Table of predicted SNOs for the next 14.0 days since TLE Epoch: 6/29/2013
Index Date (AQUA) Time (AQUA) Lat,Lon (AQUA) SZA (AQUA ) Date (NOAA-19) Time (NOAA-19) Lat,Lon (NOAA-19) SZA (NOAA-19 ) Distance(km) Time Diff (sec)
1 06/29/2013 23:01:19 -49.13, 29.09 152.09 06/29/2013 23:01:10 -49.13, 29.07 152.10 1.65 9
2 07/02/2013 03:45:26 -48.48, -41.72 152.50 07/02/2013 03:45:17 -48.47, -41.70 152.50 1.37 9
3 07/04/2013 08:29:50 -48.84,-112.94 152.08 07/04/2013 08:29:42 -48.84,-112.93 152.08 1.40 8
4 07/06/2013 13:14:33 -50.33, 175.36 150.70 07/06/2013 13:14:27 -50.34, 175.34 150.71 1.67 6
5 07/08/2013 17:58:51 -50.36, 104.27 150.47 07/08/2013 17:58:46 -50.36, 104.26 150.48 0.76 5
6 07/10/2013 22:43:06 -50.22, 33.26 150.35 07/10/2013 22:43:02 -50.21, 33.26 150.35 0.63 4




NCC Satellite Simultaneous Nadir Overpasses (SNOs) Prediction Service
